Time,TemperatureF,DewpointF,PressureIn,WindDirection,WindDirectionDegrees,WindSpeedMPH,WindSpeedGustMPH,Humidity,HourlyPrecipIn,Conditions,Clouds,dailyrainin,SolarRadiationWatts/m^2,SoftwareType,DateUTC
2013-02-27 00:01:00,56.0,-99.9,-100.00,NNE,32,2.0,8.0,-999,0.00,,,0.00,0.000000,,2013-02-27 10:01:00,
2013-02-27 00:12:00,56.0,-99.9,-100.00,NNE,32,2.0,8.0,-999,0.00,,,0.00,0.000000,,2013-02-27 10:12:00,
2013-02-27 00:22:00,56.0,-99.9,-100.00,NNE,32,2.0,8.0,-999,0.00,,,0.00,0.000000,,2013-02-27 10:22:00,
2013-02-27 00:42:00,55.0,53.0,-100.00,North,359,2.0,8.0,93,0.00,,,0.00,0.000000,,2013-02-27 10:42:00,
2013-02-27 00:52:00,55.0,53.0,-100.00,North,359,2.0,8.0,93,0.00,,,0.00,0.000000,,2013-02-27 10:52:00,
2013-02-27 01:01:00,55.0,53.0,-100.00,North,359,2.0,8.0,93,0.00,,,0.00,0.000000,,2013-02-27 11:01:00,
2013-02-27 01:11:00,55.0,53.0,-100.00,North,359,2.0,8.0,93,0.00,,,0.00,0.000000,,2013-02-27 11:11:00,
2013-02-27 01:21:00,55.0,53.0,-100.00,North,359,2.0,8.0,93,0.00,,,0.00,0.000000,,2013-02-27 11:21:00,
2013-02-27 01:42:00,53.0,50.0,-100.00,NNW,348,2.0,7.0,88,0.00,,,0.00,0.000000,,2013-02-27 11:42:00,
2013-02-27 01:52:00,53.0,50.0,-100.00,NNW,348,2.0,7.0,88,0.00,,,0.00,0.000000,,2013-02-27 11:52:00,
2013-02-27 02:02:00,53.0,50.0,-100.00,NNW,348,2.0,7.0,88,0.00,,,0.00,0.000000,,2013-02-27 12:02:00,
2013-02-27 02:12:00,53.0,50.0,-100.00,NNW,348,2.0,7.0,88,0.00,,,0.00,0.000000,,2013-02-27 12:12:00,
2013-02-27 02:21:00,53.0,50.0,-100.00,NNW,348,2.0,7.0,88,0.00,,,0.00,0.000000,,2013-02-27 12:21:00,
2013-02-27 02:42:00,54.0,50.0,-100.00,North,355,2.0,11.0,85,0.00,,,0.00,0.000000,,2013-02-27 12:42:00,
2013-02-27 02:52:00,54.0,50.0,-100.00,North,355,2.0,11.0,85,0.00,,,0.00,0.000000,,2013-02-27 12:52:00,
2013-02-27 03:02:00,54.0,50.0,-100.00,North,355,2.0,11.0,85,0.00,,,0.00,0.000000,,2013-02-27 13:02:00,
2013-02-27 03:11:00,54.0,50.0,-100.00,North,355,2.0,11.0,85,0.00,,,0.00,0.000000,,2013-02-27 13:11:00,
2013-02-27 03:21:00,54.0,50.0,-100.00,North,355,2.0,11.0,85,0.00,,,0.00,0.000000,,2013-02-27 13:21:00,
2013-02-27 03:42:00,56.0,52.0,-100.00,NE,35,3.0,13.0,85,0.00,,,0.00,0.000000,,2013-02-27 13:42:00,
2013-02-27 03:52:00,56.0,52.0,-100.00,NE,35,3.0,13.0,85,0.00,,,0.00,0.000000,,2013-02-27 13:52:00,
2013-02-27 04:02:00,56.0,52.0,-100.00,NE,35,3.0,13.0,85,0.00,,,0.00,0.000000,,2013-02-27 14:02:00,
2013-02-27 04:11:00,56.0,52.0,-100.00,NE,35,3.0,13.0,85,0.00,,,0.00,0.000000,,2013-02-27 14:11:00,
2013-02-27 04:21:00,56.0,52.0,-100.00,NE,35,3.0,13.0,85,0.00,,,0.00,0.000000,,2013-02-27 14:21:00,
2013-02-27 04:42:00,55.0,52.0,-100.00,NNE,15,3.0,11.0,89,0.00,,,0.00,0.000000,,2013-02-27 14:42:00,
2013-02-27 04:52:00,55.0,52.0,-100.00,NNE,15,3.0,11.0,89,0.00,,,0.00,0.000000,,2013-02-27 14:52:00,
2013-02-27 05:02:00,55.0,52.0,-100.00,NNE,15,3.0,11.0,89,0.00,,,0.00,0.000000,,2013-02-27 15:02:00,
2013-02-27 05:12:00,55.0,52.0,-100.00,NNE,15,3.0,11.0,89,0.00,,,0.00,0.000000,,2013-02-27 15:12:00,
2013-02-27 05:21:00,55.0,52.0,-100.00,NNE,15,3.0,11.0,89,0.00,,,0.00,0.000000,,2013-02-27 15:21:00,
2013-02-27 05:42:00,55.0,52.0,-100.00,NNE,23,4.0,17.0,91,0.00,,,0.00,0.000000,,2013-02-27 15:42:00,
2013-02-27 05:52:00,55.0,52.0,-100.00,NNE,23,4.0,17.0,91,0.00,,,0.00,0.000000,,2013-02-27 15:52:00,
2013-02-27 06:01:00,55.0,52.0,-100.00,NNE,23,4.0,17.0,91,0.00,,,0.00,0.000000,,2013-02-27 16:01:00,
2013-02-27 06:11:00,55.0,52.0,-100.00,NNE,23,4.0,17.0,91,0.00,,,0.00,0.000000,,2013-02-27 16:11:00,
2013-02-27 06:21:00,55.0,52.0,-100.00,NNE,23,4.0,17.0,91,0.00,,,0.00,0.000000,,2013-02-27 16:21:00,
2013-02-27 06:42:00,54.0,51.0,-100.00,North,6,3.0,13.0,91,0.00,,,0.00,0.000000,,2013-02-27 16:42:00,
2013-02-27 06:52:00,54.0,51.0,-100.00,North,6,3.0,13.0,91,0.00,,,0.00,0.000000,,2013-02-27 16:52:00,
2013-02-27 07:01:00,54.0,51.0,-100.00,North,6,3.0,13.0,91,0.00,,,0.00,0.000000,,2013-02-27 17:01:00,
2013-02-27 07:11:00,54.0,51.0,-100.00,North,6,3.0,13.0,91,0.00,,,0.00,0.000000,,2013-02-27 17:11:00,
2013-02-27 07:21:00,54.0,51.0,-100.00,North,6,3.0,13.0,91,0.00,,,0.00,0.000000,,2013-02-27 17:21:00,
2013-02-27 07:42:00,52.0,49.0,-100.00,North,352,3.0,12.0,89,0.00,,,0.00,3.000000,,2013-02-27 17:42:00,
2013-02-27 07:52:00,52.0,49.0,-100.00,North,352,3.0,12.0,89,0.00,,,0.00,3.000000,,2013-02-27 17:52:00,
2013-02-27 08:01:00,52.0,49.0,-100.00,North,352,3.0,12.0,89,0.00,,,0.00,3.000000,,2013-02-27 18:01:00,
2013-02-27 08:11:00,52.0,49.0,-100.00,North,352,3.0,12.0,89,0.00,,,0.00,3.000000,,2013-02-27 18:11:00,
2013-02-27 08:21:00,52.0,49.0,-100.00,North,352,3.0,12.0,89,0.00,,,0.00,3.000000,,2013-02-27 18:21:00,
2013-02-27 08:42:00,54.0,48.0,-100.00,North,0,3.0,12.0,81,0.00,,,0.00,72.000000,,2013-02-27 18:42:00,
2013-02-27 08:52:00,54.0,48.0,-100.00,North,0,3.0,12.0,81,0.00,,,0.00,72.000000,,2013-02-27 18:52:00,
2013-02-27 09:01:00,54.0,48.0,-100.00,North,0,3.0,12.0,81,0.00,,,0.00,72.000000,,2013-02-27 19:01:00,
2013-02-27 09:11:00,54.0,48.0,-100.00,North,0,3.0,12.0,81,0.00,,,0.00,72.000000,,2013-02-27 19:11:00,
2013-02-27 09:21:00,54.0,48.0,-100.00,North,0,3.0,12.0,81,0.00,,,0.00,72.000000,,2013-02-27 19:21:00,
2013-02-27 09:42:00,58.0,49.0,-100.00,NE,48,5.0,16.0,71,0.00,,,0.00,293.000000,,2013-02-27 19:42:00,
2013-02-27 09:52:00,58.0,49.0,-100.00,NE,48,5.0,16.0,71,0.00,,,0.00,293.000000,,2013-02-27 19:52:00,
2013-02-27 10:01:00,58.0,49.0,-100.00,NE,48,5.0,16.0,71,0.00,,,0.00,293.000000,,2013-02-27 20:01:00,
2013-02-27 10:11:00,58.0,49.0,-100.00,NE,48,5.0,16.0,71,0.00,,,0.00,293.000000,,2013-02-27 20:11:00,
2013-02-27 10:21:00,58.0,49.0,-100.00,NE,48,5.0,16.0,71,0.00,,,0.00,293.000000,,2013-02-27 20:21:00,
2013-02-27 10:42:00,59.0,45.0,-100.00,NE,41,5.0,25.0,60,0.00,,,-99.99,348.000000,,2013-02-27 20:42:00,
2013-02-27 10:52:00,59.0,45.0,-100.00,NE,41,5.0,25.0,60,0.00,,,-99.99,348.000000,,2013-02-27 20:52:00,
2013-02-27 11:01:00,59.0,45.0,-100.00,NE,41,5.0,25.0,60,0.00,,,-99.99,348.000000,,2013-02-27 21:01:00,
2013-02-27 11:11:00,59.0,45.0,-100.00,NE,41,5.0,25.0,60,0.00,,,-99.99,348.000000,,2013-02-27 21:11:00,
2013-02-27 11:21:00,59.0,45.0,-100.00,NE,41,5.0,25.0,60,0.00,,,-99.99,348.000000,,2013-02-27 21:21:00,
2013-02-27 11:42:00,65.0,45.0,-100.00,ESE,110,5.0,16.0,49,0.00,,,-99.99,821.000000,,2013-02-27 21:42:00,
2013-02-27 11:52:00,65.0,45.0,-100.00,ESE,110,5.0,16.0,49,0.00,,,-99.99,821.000000,,2013-02-27 21:52:00,
2013-02-27 12:01:00,65.0,45.0,-100.00,ESE,110,5.0,16.0,49,0.00,,,-99.99,821.000000,,2013-02-27 22:01:00,
2013-02-27 12:11:00,65.0,45.0,-100.00,ESE,110,5.0,16.0,49,0.00,,,-99.99,821.000000,,2013-02-27 22:11:00,
2013-02-27 12:21:00,65.0,45.0,-100.00,ESE,110,5.0,16.0,49,0.00,,,-99.99,821.000000,,2013-02-27 22:21:00,
2013-02-27 12:42:00,67.0,50.0,-100.00,ESE,116,5.0,18.0,54,0.00,,,0.00,927.000000,,2013-02-27 22:42:00,
2013-02-27 12:52:00,67.0,50.0,-100.00,ESE,116,5.0,18.0,54,0.00,,,0.00,927.000000,,2013-02-27 22:52:00,
2013-02-27 13:01:00,67.0,50.0,-100.00,ESE,116,5.0,18.0,54,0.00,,,0.00,927.000000,,2013-02-27 23:01:00,
2013-02-27 13:11:00,67.0,50.0,-100.00,ESE,116,5.0,18.0,54,0.00,,,0.00,927.000000,,2013-02-27 23:11:00,
2013-02-27 13:21:00,67.0,50.0,-100.00,ESE,116,5.0,18.0,54,0.00,,,0.00,927.000000,,2013-02-27 23:21:00,
2013-02-27 13:42:00,67.0,55.0,-100.00,ESE,120,5.0,16.0,66,0.00,,,0.00,904.000000,,2013-02-27 23:42:00,
2013-02-27 13:53:00,67.0,55.0,-100.00,ESE,120,5.0,16.0,66,0.00,,,0.00,904.000000,,2013-02-27 23:53:00,
2013-02-27 14:01:00,67.0,55.0,-100.00,ESE,120,5.0,16.0,66,0.00,,,0.00,904.000000,,2013-02-28 00:01:00,
2013-02-27 14:11:00,67.0,55.0,-100.00,ESE,120,5.0,16.0,66,0.00,,,0.00,904.000000,,2013-02-28 00:11:00,
2013-02-27 14:21:00,67.0,55.0,-100.00,ESE,120,5.0,16.0,66,0.00,,,0.00,904.000000,,2013-02-28 00:21:00,
2013-02-27 14:42:00,65.0,54.0,-100.00,ESE,112,4.0,14.0,67,0.00,,,0.00,678.000000,,2013-02-28 00:42:00,
2013-02-27 14:52:00,65.0,54.0,-100.00,ESE,112,4.0,14.0,67,0.00,,,0.00,678.000000,,2013-02-28 00:52:00,
2013-02-27 15:01:00,65.0,54.0,-100.00,ESE,112,4.0,14.0,67,0.00,,,0.00,678.000000,,2013-02-28 01:01:00,
2013-02-27 15:11:00,65.0,54.0,-100.00,ESE,112,4.0,14.0,67,0.00,,,0.00,678.000000,,2013-02-28 01:11:00,
2013-02-27 15:21:00,65.0,54.0,-100.00,ESE,112,4.0,14.0,67,0.00,,,0.00,678.000000,,2013-02-28 01:21:00,
2013-02-27 15:42:00,64.0,56.0,-100.00,East,96,4.0,17.0,75,0.00,,,0.00,526.000000,,2013-02-28 01:42:00,
2013-02-27 15:52:00,64.0,56.0,-100.00,East,96,4.0,17.0,75,0.00,,,0.00,526.000000,,2013-02-28 01:52:00,
2013-02-27 16:01:00,64.0,56.0,-100.00,East,96,4.0,17.0,75,0.00,,,0.00,526.000000,,2013-02-28 02:01:00,
2013-02-27 16:11:00,64.0,56.0,-100.00,East,96,4.0,17.0,75,0.00,,,0.00,526.000000,,2013-02-28 02:11:00,
2013-02-27 16:21:00,64.0,56.0,-100.00,East,96,4.0,17.0,75,0.00,,,0.00,526.000000,,2013-02-28 02:21:00,
2013-02-27 17:01:00,60.0,55.0,-100.00,ESE,122,3.0,13.0,85,0.00,,,0.00,170.000000,,2013-02-28 03:01:00,
2013-02-27 17:11:00,60.0,55.0,-100.00,ESE,122,3.0,13.0,85,0.00,,,0.00,170.000000,,2013-02-28 03:11:00,
2013-02-27 17:21:00,60.0,55.0,-100.00,ESE,122,3.0,13.0,85,0.00,,,0.00,170.000000,,2013-02-28 03:21:00,
2013-02-27 17:42:00,58.0,54.0,-100.00,East,85,3.0,13.0,86,0.00,,,0.00,51.000000,,2013-02-28 03:42:00,
2013-02-27 17:52:00,58.0,54.0,-100.00,East,85,3.0,13.0,86,0.00,,,0.00,51.000000,,2013-02-28 03:52:00,
2013-02-27 18:01:00,58.0,54.0,-100.00,East,85,3.0,13.0,86,0.00,,,0.00,51.000000,,2013-02-28 04:01:00,
2013-02-27 18:11:00,58.0,54.0,-100.00,East,85,3.0,13.0,86,0.00,,,0.00,51.000000,,2013-02-28 04:11:00,
2013-02-27 18:21:00,58.0,54.0,-100.00,East,85,3.0,13.0,86,0.00,,,0.00,51.000000,,2013-02-28 04:21:00,
2013-02-27 18:42:00,58.0,55.0,-100.00,NE,34,3.0,13.0,89,0.00,,,0.00,46.000000,,2013-02-28 04:42:00,
2013-02-27 18:52:00,58.0,55.0,-100.00,NE,34,3.0,13.0,89,0.00,,,0.00,46.000000,,2013-02-28 04:52:00,
2013-02-27 19:01:00,58.0,55.0,-100.00,NE,34,3.0,13.0,89,0.00,,,0.00,46.000000,,2013-02-28 05:01:00,
2013-02-27 19:11:00,58.0,55.0,-100.00,NE,34,3.0,13.0,89,0.00,,,0.00,46.000000,,2013-02-28 05:11:00,
2013-02-27 19:22:00,58.0,55.0,-100.00,NE,34,3.0,13.0,89,0.00,,,0.00,46.000000,,2013-02-28 05:22:00,
2013-02-27 19:43:00,57.0,54.0,-100.00,NNE,19,3.0,12.0,90,0.00,,,-99.99,2.000000,,2013-02-28 05:43:00,
2013-02-27 19:52:00,57.0,54.0,-100.00,NNE,19,3.0,12.0,90,0.00,,,-99.99,2.000000,,2013-02-28 05:52:00,
2013-02-27 20:01:00,57.0,54.0,-100.00,NNE,19,3.0,12.0,90,0.00,,,-99.99,2.000000,,2013-02-28 06:01:00,
2013-02-27 20:11:00,57.0,54.0,-100.00,NNE,19,3.0,12.0,90,0.00,,,-99.99,2.000000,,2013-02-28 06:11:00,
2013-02-27 20:21:00,57.0,54.0,-100.00,NNE,19,3.0,12.0,90,0.00,,,-99.99,2.000000,,2013-02-28 06:21:00,
2013-02-27 20:42:00,56.0,53.0,-100.00,North,11,3.0,10.0,90,0.00,,,0.00,0.000000,,2013-02-28 06:42:00,
2013-02-27 20:52:00,56.0,53.0,-100.00,North,11,3.0,10.0,90,0.00,,,0.00,0.000000,,2013-02-28 06:52:00,
2013-02-27 21:01:00,56.0,53.0,-100.00,North,11,3.0,10.0,90,0.00,,,0.00,0.000000,,2013-02-28 07:01:00,
2013-02-27 21:11:00,56.0,53.0,-100.00,North,11,3.0,10.0,90,0.00,,,0.00,0.000000,,2013-02-28 07:11:00,
2013-02-27 21:21:00,56.0,53.0,-100.00,North,11,3.0,10.0,90,0.00,,,0.00,0.000000,,2013-02-28 07:21:00,
2013-02-27 21:42:00,54.0,51.0,-100.00,North,353,2.0,6.0,91,0.00,,,0.00,0.000000,,2013-02-28 07:42:00,
2013-02-27 21:52:00,54.0,51.0,-100.00,North,353,2.0,6.0,91,0.00,,,0.00,0.000000,,2013-02-28 07:52:00,
2013-02-27 22:01:00,54.0,51.0,-100.00,North,353,2.0,6.0,91,0.00,,,0.00,0.000000,,2013-02-28 08:01:00,
2013-02-27 22:11:00,54.0,51.0,-100.00,North,353,2.0,6.0,91,0.00,,,0.00,0.000000,,2013-02-28 08:11:00,
2013-02-27 22:21:00,54.0,51.0,-100.00,North,353,2.0,6.0,91,0.00,,,0.00,0.000000,,2013-02-28 08:21:00,
2013-02-27 22:42:00,53.0,47.0,-100.00,North,352,3.0,9.0,81,0.00,,,0.00,0.000000,,2013-02-28 08:42:00,
2013-02-27 22:53:00,53.0,47.0,-100.00,North,352,3.0,9.0,81,0.00,,,0.00,0.000000,,2013-02-28 08:53:00,
2013-02-27 23:03:00,53.0,47.0,-100.00,North,352,3.0,9.0,81,0.00,,,0.00,0.000000,,2013-02-28 09:03:00,
2013-02-27 23:11:00,53.0,47.0,-100.00,North,352,3.0,9.0,81,0.00,,,0.00,0.000000,,2013-02-28 09:11:00,
2013-02-27 23:21:00,53.0,47.0,-100.00,North,352,3.0,9.0,81,0.00,,,0.00,0.000000,,2013-02-28 09:21:00,
2013-02-27 23:42:00,54.0,43.0,-100.00,North,350,3.0,12.0,67,0.00,,,0.00,0.000000,,2013-02-28 09:42:00,
2013-02-27 23:52:00,54.0,43.0,-100.00,North,350,3.0,12.0,67,0.00,,,0.00,0.000000,,2013-02-28 09:52:00,